STARLINK-11452, 62511

Orbit data source: Space-Track

STARLINK-11452, 62511 is a payload satellite owned by SpaceX/Seattle (US) in LEO that was launched on Wed, 08 Jan 2025 UTC via an FALCON 9 launch vehicle from the Air Force Eastern Test Range (AFETR). Payloads include a variety of satellites, spacecraft, and rockets equipped with specific instruments for various scientific and technological missions. These include communications satellites like Starlink; space stations such as the ISS; scientific satellites like the Hubble; Earth observation satellites from companies like Planet Labs, Umbra, and HawkEye 360; GPS; miniature CubeSats for education and research; and military/defense satellites.

Loading next visibility...
STARLINK-11452 details
Identifier
62511, 2025-004A
Orbit
LEO
Last TLE update1 day ago
Origin
Flag of USSpaceX/Seattle (US)
ManufacturerSpaceX/Seattle
MissionOperational spacecraft
Bus & MotorSTARLINK V2M, Unknown motor
Mass730 kg wet, ~700 kg dry
Launch date (UTC)
2025-01-08 (1 month ago)
Launch vehicle
FALCON 9
Launch site
Air Force Eastern Test Range (AFETR)
Object type
Payload
Rocket body
Debris
Shape & HBRUnknown
Radar Cross SectionLarge (>1 m²)

Expand to show TLE details & history

TLE from 1 day ago
0 STARLINK-11452
1 62511U 25004A   25035.14950948  .00003847  00000-0  24953-4 0  9990
2 62511  42.9952 314.3424 0001188 262.6952  97.3783 15.77858824  5433
Epoch: 2025-02-04T03:35Z
Definitive object data (Epoch: 2025-02-04T03:35:17.619Z)
Latitude-0.00001°
Longitude125.96004°
Altitude336.381 km
Speed7.709 km/s
True Right ascension20h 57m 22s
True Declination0° 00' 00"
Sunlit
Object was in daylight at TLE epoch
Visualization TLE readout
Latitude-33.84125°
Longitude73.42456°
Altitude345.334 km
Speed7.702 km/s
Apparent Right ascension18h 58m 54s
Apparent Declination-39° 15' 37"
Sunlit
Object is in daylight
Visualization observer readout
Local Sidereal Time08:44:26
Azimuth96.681° ESE
Elevation-69.731°
Doppler factor1
Orbital elements
Apogee altitude339.295 km
Perigee altitude337.699 km
Semi-major axis6,716.634 km
Eccentricity0.0001188
Inclination42.9952°
RAAN314.3424°
Arg. of periapsis262.6952°
True anomaly97.3918°
Mean anomaly97.3783°
Eccentric anomaly97.38505°
Mean motion3.9429 °/min
BSTAR0.000024953
Orbital period91.3 mins
Loading maneuver chart data...
Loading historical data...
Loading historical data...
Loading historical data...
Loading historical data...
Loading historical data...
Loading historical data...
Loading historical data...

STARLINK-11452 Visibility forecast

Observer location: undefined°, undefined

Span
Click to sort rows by Start time (UTC) header in descending order
Start Az.
Max El. time (UTC)
Max El. Az.
Max El.
End time (UTC)
End Az.
4 mins2025-02-06 01:35:13.223Z292.538° NW2025-02-06 01:37:13.223Z64.956° ENE42.741°2025-02-06 01:39:13.223Z101.315° ESE
|